GW1106 Weather Reports


time (UTC)temp
C
wind
direction
speed
KPH
gust
KPH
rain 1hr
cm
rain 24hr
cm
rain mn
cm
humidity
%
barometer
mb
20260505035218 11 127 0.0 0.0 0.00 0.00 0.00 75 1016.7
20260505034715 11 126 0.0 0.0 0.00 0.00 0.00 74 1016.8
20260505034212 12 120 0.0 0.0 0.00 0.00 0.00 74 1016.8
20260505033708 12 119 0.0 0.0 0.00 0.00 0.00 73 1017.0
20260505033207 11 102 0.0 1.6 0.00 0.00 0.00 78 1016.8
20260505032704 15 314 0.0 0.0 0.00 0.00 0.00 66 1016.8
20260505032200 15 155 1.6 1.6 0.00 0.00 0.00 61 1016.9
20260505031658 15 160 0.0 3.2 0.00 0.00 0.00 61 1016.9
20260505031154 13 169 1.6 3.2 0.00 0.00 0.00 65 1016.8
20260505030651 12 145 0.0 0.0 0.00 0.00 0.00 71 1016.7
20260505030146 12 137 0.0 0.0 0.00 0.00 0.00 70 1016.8
20260505025643 12 144 0.0 1.6 0.00 0.00 0.00 70 1016.8
20260505025142 13 110 0.0 0.0 0.00 0.00 0.00 70 1016.8
20260505024639 13 135 0.0 0.0 0.00 0.00 0.00 69 1016.8
20260505024136 13 142 0.0 0.0 0.00 0.00 0.00 67 1016.7
20260505023633 13 143 0.0 0.0 0.00 0.00 0.00 69 1016.8
20260505023131 13 127 0.0 0.0 0.00 0.00 0.00 69 1016.5
20260505022628 13 134 0.0 0.0 0.00 0.00 0.00 68 1016.7
20260505022125 14 134 0.0 0.0 0.00 0.00 0.00 67 1016.7
20260505021621 14 139 0.0 0.0 0.00 0.00 0.00 66 1016.7
20260505021118 15 137 0.0 0.0 0.00 0.00 0.00 64 1016.6
20260505020613 15 142 0.0 0.0 0.00 0.00 0.00 64 1016.7
20260505020110 15 144 0.0 0.0 0.00 0.00 0.00 61 1016.3
20260505015607 16 135 0.0 0.0 0.00 0.00 0.00 60 1016.4
20260505015104 16 127 1.6 1.6 0.00 0.00 0.00 57 1016.4
20260505014600 17 135 0.0 0.0 0.00 0.00 0.00 54 1016.4
20260505014058 17 131 0.0 0.0 0.00 0.00 0.00 53 1016.2
20260505013555 18 144 0.0 0.0 0.00 0.00 0.00 50 1016.3
20260505013052 19 180 1.6 1.6 0.00 0.00 0.00 48 1016.2
20260505012550 19 219 3.2 4.8 0.00 0.00 0.00 47 1016.2
20260505012047 19 207 3.2 3.2 0.00 0.00 0.00 47 1016.1
20260505011542 19 209 3.2 4.8 0.00 0.00 0.00 47 1016.2
20260505011040 20 235 6.4 6.4 0.00 0.00 0.00 46 1016.1
20260505010535 20 213 4.8 6.4 0.00 0.00 0.00 46 1016.0
20260505010032 20 228 4.8 6.4 0.00 0.00 0.00 46 1016.0
20260505005528 20 195 3.2 6.4 0.00 0.00 0.00 46 1016.0
20260505005026 20 179 3.2 4.8 0.00 0.00 0.00 46 1016.0
20260505004523 20 169 3.2 4.8 0.00 0.00 0.00 46 1015.6
20260505004019 19 169 1.6 3.2 0.00 0.00 0.00 46 1015.6
20260505003517 20 157 0.0 1.6 0.00 0.00 0.00 46 1015.7
20260505003014 20 172 0.0 3.2 0.00 0.00 0.00 45 1015.7
20260505002509 20 211 1.6 4.8 0.00 0.00 0.00 44 1015.5
20260505002008 20 157 0.0 4.8 0.00 0.00 0.00 44 1015.6
20260505001505 20 165 0.0 3.2 0.00 0.00 0.00 43 1015.6
20260505001002 20 165 0.0 1.6 0.00 0.00 0.00 43 1015.6
20260505000500 21 189 0.0 3.2 0.00 0.00 0.00 43 1015.5
20260504235956 21 149 1.6 1.6 0.00 0.00 0.00 42 1015.2
20260504235453 21 162 1.6 4.8 0.00 0.00 0.00 41 1015.6
20260504234950 21 199 3.2 4.8 0.00 0.00 0.00 40 1015.2
20260504234447 22 187 3.2 6.4 0.00 0.00 0.00 41 1015.2
20260504233943 22 221 3.2 4.8 0.00 0.00 0.00 39 1015.2
20260504233439 22 209 8.0 9.7 0.00 0.00 0.00 39 1015.0
20260504232937 22 193 1.6 4.8 0.00 0.00 0.00 40 1015.1
20260504232434 22 189 3.2 6.4 0.00 0.00 0.00 39 1015.1
20260504231931 22 208 4.8 11.3 0.00 0.00 0.00 39 1015.1
20260504231427 22 232 9.7 11.3 0.00 0.00 0.00 38 1015.0
20260504230923 22 215 4.8 11.3 0.00 0.00 0.00 37 1015.2
20260504230420 23 218 3.2 9.7 0.00 0.00 0.00 37 1015.0
20260504225919 23 217 6.4 9.7 0.00 0.00 0.00 37 1015.0
20260504225416 23 230 4.8 11.3 0.00 0.00 0.00 36 1014.9
20260504224913 23 184 6.4 16.1 0.00 0.00 0.00 36 1014.9
20260504224409 23 230 8.0 9.7 0.00 0.00 0.00 37 1014.9
20260504223907 23 206 11.3 12.9 0.00 0.00 0.00 34 1015.2
20260504223402 23 250 14.5 17.7 0.00 0.00 0.00 35 1015.1
20260504222858 23 232 3.2 6.4 0.00 0.00 0.00 36 1015.1
20260504222355 23 226 9.7 12.9 0.00 0.00 0.00 34 1015.1
20260504221854 23 212 4.8 14.5 0.00 0.00 0.00 34 1015.0
20260504221350 23 214 4.8 12.9 0.00 0.00 0.00 36 1015.1
20260504220847 23 187 4.8 9.7 0.00 0.00 0.00 35 1015.2
20260504220344 23 223 4.8 11.3 0.00 0.00 0.00 34 1014.9
20260504215841 23 216 3.2 17.7 0.00 0.00 0.00 34 1015.0
20260504215337 23 219 3.2 9.7 0.00 0.00 0.00 35 1014.9
20260504214834 23 220 8.0 16.1 0.00 0.00 0.00 35 1015.2
20260504214331 23 220 8.0 9.7 0.00 0.00 0.00 36 1014.9
20260504213827 23 249 9.7 16.1 0.00 0.00 0.00 35 1015.0
20260504213323 23 244 8.0 9.7 0.00 0.00 0.00 35 1014.9
20260504212821 24 195 11.3 16.1 0.00 0.00 0.00 34 1015.1
20260504212317 24 179 8.0 16.1 0.00 0.00 0.00 35 1015.1
20260504211815 24 224 6.4 14.5 0.00 0.00 0.00 36 1015.2
20260504211310 24 232 4.8 12.9 0.00 0.00 0.00 36 1015.1
20260504210808 25 228 9.7 14.5 0.00 0.00 0.00 35 1015.1
20260504210305 25 236 3.2 6.4 0.00 0.00 0.00 33 1015.0
20260504205803 25 264 16.1 17.7 0.00 0.00 0.00 35 1015.1
20260504205300 24 176 6.4 12.9 0.00 0.00 0.00 34 1015.2
20260504204758 25 198 11.3 14.5 0.00 0.00 0.00 33 1015.0
20260504204251 25 241 9.7 16.1 0.00 0.00 0.00 33 1015.2
20260504203750 25 256 12.9 20.9 0.00 0.00 0.00 33 1015.2
20260504203246 25 191 6.4 6.4 0.00 0.00 0.00 32 1015.2
20260504202746 25 192 6.4 12.9 0.00 0.00 0.00 33 1015.3
20260504202244 25 184 9.7 17.7 0.00 0.00 0.00 32 1015.6
20260504201741 25 163 9.7 16.1 0.00 0.00 0.00 34 1015.6
20260504201238 25 172 6.4 14.5 0.00 0.00 0.00 33 1015.5
20260504200736 25 197 9.7 14.5 0.00 0.00 0.00 34 1015.5
20260504200231 25 223 4.8 12.9 0.00 0.00 0.00 36 1015.8
20260504195728 25 241 6.4 12.9 0.00 0.00 0.00 35 1015.7
20260504195224 25 270 3.2 9.7 0.00 0.00 0.00 35 1015.7
20260504194721 26 217 12.9 12.9 0.00 0.00 0.00 31 1015.9
20260504194217 25 182 4.8 4.8 0.00 0.00 0.00 33 1015.9
20260504193714 24 197 11.3 16.1 0.00 0.00 0.00 32 1016.1
20260504193212 25 233 8.0 12.9 0.00 0.00 0.00 33 1016.0
20260504192710 25 175 4.8 9.7 0.00 0.00 0.00 32 1016.1
20260504192208 24 199 3.2 6.4 0.00 0.00 0.00 33 1016.2
20260504191706 24 143 8.0 12.9 0.00 0.00 0.00 35 1016.4
20260504191202 24 171 8.0 14.5 0.00 0.00 0.00 33 1016.4
20260504190657 24 99 3.2 6.4 0.00 0.00 0.00 33 1016.3
20260504190154 24 216 6.4 16.1 0.00 0.00 0.00 33 1016.4
20260504185651 24 197 6.4 11.3 0.00 0.00 0.00 32 1016.5
20260504185148 24 162 3.2 6.4 0.00 0.00 0.00 33 1016.5
20260504184644 23 223 6.4 12.9 0.00 0.00 0.00 34 1016.5
20260504184138 23 215 12.9 14.5 0.00 0.00 0.00 34 1016.5
20260504183636 23 295 9.7 12.9 0.00 0.00 0.00 34 1016.6
20260504183133 24 162 9.7 12.9 0.00 0.00 0.00 34 1016.7
20260504182631 23 247 3.2 12.9 0.00 0.00 0.00 36 1016.8
20260504182128 23 167 4.8 12.9 0.00 0.00 0.00 37 1016.8
20260504181626 23 176 0.0 4.8 0.00 0.00 0.00 33 1016.9
20260504181123 23 112 3.2 9.7 0.00 0.00 0.00 34 1017.0
20260504180622 23 218 6.4 12.9 0.00 0.00 0.00 36 1016.9
20260504180121 23 236 8.0 12.9 0.00 0.00 0.00 34 1016.9
20260504175617 23 157 4.8 9.7 0.00 0.00 0.00 31 1017.1
20260504175114 23 199 3.2 3.2 0.00 0.00 0.00 33 1017.0
20260504174612 23 212 3.2 12.9 0.00 0.00 0.00 33 1017.1
20260504174108 24 107 1.6 3.2 0.00 0.00 0.00 34 1017.1
20260504173605 23 162 0.0 1.6 0.00 0.00 0.00 31 1017.2
20260504173103 22 150 6.4 9.7 0.00 0.00 0.00 32 1017.4
20260504172559 23 198 4.8 14.5 0.00 0.00 0.00 33 1017.2
20260504172056 22 33 4.8 6.4 0.00 0.00 0.00 31 1017.3
20260504171552 22 325 3.2 6.4 0.00 0.00 0.00 33 1017.3
20260504171049 23 110 3.2 3.2 0.00 0.00 0.00 32 1017.4
20260504170545 23 66 1.6 3.2 0.00 0.00 0.00 32 1017.7
20260504150929 20 174 3.2 6.4 0.00 0.00 0.00 41 1019.1
20260504150426 18 229 4.8 6.4 0.00 0.00 0.00 41 1019.2
20260504140852 16 209 3.2 4.8 0.00 0.00 0.00 56 1019.1
20260504140348 16 172 1.6 3.2 0.00 0.00 0.00 56 1019.0
20260504130817 13 322 1.6 3.2 0.00 0.00 0.00 67 1019.1
20260504130313 12 215 0.0 4.8 0.00 0.00 0.00 71 1018.8
20260504120237 6 134 0.0 0.0 0.00 0.00 0.00 98 1018.6
20260504110704 3 142 0.0 0.0 0.00 0.00 0.00 99 1018.5
20260504110200 2 136 0.0 0.0 0.00 0.00 0.00 99 1018.6
20260504100125 2 68 0.0 0.0 0.00 0.00 0.00 98 1018.2
20260504081518 3 159 0.0 0.0 0.00 0.00 0.00 97 1018.1
20260504081013 4 171 0.0 0.0 0.00 0.00 0.00 96 1017.9
20260504080510 3 139 0.0 0.0 0.00 0.00 0.00 97 1017.8
20260504050322 6 117 0.0 1.6 0.00 0.00 0.00 92 1018.5
20260504045820 6 119 0.0 0.0 0.00 0.00 0.00 92 1018.4
20260504045319 6 105 0.0 1.6 0.00 0.00 0.00 91 1018.4
20260504044817 6 105 0.0 0.0 0.00 0.00 0.00 91 1018.1
20260504044314 6 123 0.0 1.6 0.00 0.00 0.00 90 1018.2
20260504043812 6 125 0.0 0.0 0.00 0.00 0.00 89 1018.1
20260504043308 6 124 0.0 3.2 0.00 0.00 0.00 89 1018.1
20260504042806 6 116 0.0 0.0 0.00 0.00 0.00 89 1018.1
20260504042304 7 118 0.0 3.2 0.00 0.00 0.00 88 1018.0
20260504041758 7 128 1.6 1.6 0.00 0.00 0.00 88 1018.1
20260504041255 6 126 1.6 1.6 0.00 0.00 0.00 89 1018.1
20260504040751 6 96 3.2 3.2 0.00 0.00 0.00 89 1018.2
20260504040248 7 64 0.0 0.0 0.00 0.00 0.00 88 1018.4
20260504035744 7 125 0.0 0.0 0.00 0.00 0.00 87 1018.4